Time,TemperatureF,DewpointF,PressureIn,WindDirection,WindDirectionDegrees,WindSpeedMPH,WindSpeedGustMPH,Humidity,HourlyPrecipIn,Conditions,Clouds,dailyrainin,SolarRadiationWatts/m^2,SoftwareType,DateUTC
2013-03-17 00:22:00,52.0,52.0,29.93,NNE,19,5.0,8.0,100,0.00,,,-99.99,0.000000,,2013-03-17 07:22:00,
2013-03-17 00:32:00,52.0,52.0,29.93,NNE,19,5.0,8.0,100,0.00,,,-99.99,0.000000,,2013-03-17 07:32:00,
2013-03-17 00:42:00,52.0,52.0,29.93,NNE,19,5.0,8.0,100,0.00,,,-99.99,0.000000,,2013-03-17 07:42:00,
2013-03-17 00:52:00,52.0,52.0,29.93,NNE,19,5.0,8.0,100,0.00,,,-99.99,0.000000,,2013-03-17 07:52:00,
2013-03-17 01:22:00,52.0,52.0,29.94,NNE,27,6.0,10.0,100,0.00,,,0.00,0.000000,,2013-03-17 08:22:00,
2013-03-17 01:32:00,52.0,52.0,29.94,NNE,27,6.0,10.0,100,0.00,,,0.00,0.000000,,2013-03-17 08:32:00,
2013-03-17 01:42:00,52.0,52.0,29.94,NNE,27,6.0,10.0,100,0.00,,,0.00,0.000000,,2013-03-17 08:42:00,
2013-03-17 01:52:00,52.0,52.0,29.94,NNE,27,6.0,10.0,100,0.00,,,0.00,0.000000,,2013-03-17 08:52:00,
2013-03-17 02:22:00,50.0,50.0,29.94,NNE,25,4.0,11.0,100,0.00,,,0.00,0.000000,,2013-03-17 09:22:00,
2013-03-17 02:32:00,50.0,50.0,29.94,NNE,25,4.0,11.0,100,0.00,,,0.00,0.000000,,2013-03-17 09:32:00,
2013-03-17 02:42:00,50.0,50.0,29.94,NNE,25,4.0,11.0,100,0.00,,,0.00,0.000000,,2013-03-17 09:42:00,
2013-03-17 02:52:00,50.0,50.0,29.94,NNE,25,4.0,11.0,100,0.00,,,0.00,0.000000,,2013-03-17 09:52:00,
2013-03-17 03:23:00,49.0,49.0,29.93,North,5,6.0,10.0,100,0.00,,,0.00,0.000000,,2013-03-17 10:23:00,
2013-03-17 03:33:00,49.0,49.0,29.93,North,5,6.0,10.0,100,0.00,,,0.00,0.000000,,2013-03-17 10:33:00,
2013-03-17 03:42:00,49.0,49.0,29.93,North,5,6.0,10.0,100,0.00,,,0.00,0.000000,,2013-03-17 10:42:00,
2013-03-17 03:52:00,49.0,49.0,29.93,North,5,6.0,10.0,100,0.00,,,0.00,0.000000,,2013-03-17 10:52:00,
2013-03-17 04:22:00,49.0,49.0,29.92,North,6,6.0,9.0,100,0.00,,,0.00,0.000000,,2013-03-17 11:22:00,
2013-03-17 04:32:00,49.0,49.0,29.92,North,6,6.0,9.0,100,0.00,,,0.00,0.000000,,2013-03-17 11:32:00,
2013-03-17 04:42:00,49.0,49.0,29.92,North,6,6.0,9.0,100,0.00,,,0.00,0.000000,,2013-03-17 11:42:00,
2013-03-17 04:51:00,49.0,49.0,29.92,North,6,6.0,9.0,100,0.00,,,0.00,0.000000,,2013-03-17 11:51:00,
2013-03-17 05:22:00,51.0,51.0,29.93,North,349,3.0,11.0,100,0.00,,,0.00,0.000000,,2013-03-17 12:22:00,
2013-03-17 05:32:00,51.0,51.0,29.93,North,349,3.0,11.0,100,0.00,,,0.00,0.000000,,2013-03-17 12:32:00,
2013-03-17 05:42:00,51.0,51.0,29.93,North,349,3.0,11.0,100,0.00,,,0.00,0.000000,,2013-03-17 12:42:00,
2013-03-17 05:51:00,51.0,51.0,29.93,North,349,3.0,11.0,100,0.00,,,0.00,0.000000,,2013-03-17 12:51:00,
2013-03-17 06:22:00,51.0,51.0,29.94,NNE,14,3.0,9.0,100,0.00,,,0.00,0.000000,,2013-03-17 13:22:00,
2013-03-17 06:32:00,51.0,51.0,29.94,NNE,14,3.0,9.0,100,0.00,,,0.00,0.000000,,2013-03-17 13:32:00,
2013-03-17 06:42:00,51.0,51.0,29.94,NNE,14,3.0,9.0,100,0.00,,,0.00,0.000000,,2013-03-17 13:42:00,
2013-03-17 06:52:00,51.0,51.0,29.94,NNE,14,3.0,9.0,100,0.00,,,0.00,0.000000,,2013-03-17 13:52:00,
2013-03-17 07:22:00,52.0,52.0,29.95,ENE,68,1.0,6.0,100,0.00,,,0.00,0.000000,,2013-03-17 14:22:00,
2013-03-17 07:32:00,52.0,52.0,29.95,ENE,68,1.0,6.0,100,0.00,,,0.00,0.000000,,2013-03-17 14:32:00,
2013-03-17 07:42:00,52.0,52.0,29.95,ENE,68,1.0,6.0,100,0.00,,,0.00,0.000000,,2013-03-17 14:42:00,
2013-03-17 07:52:00,52.0,52.0,29.95,ENE,68,1.0,6.0,100,0.00,,,0.00,0.000000,,2013-03-17 14:52:00,
2013-03-17 08:23:00,52.0,52.0,29.95,North,0,5.0,7.0,100,0.00,,,0.00,9.000000,,2013-03-17 15:23:00,
2013-03-17 08:33:00,52.0,52.0,29.95,North,0,5.0,7.0,100,0.00,,,0.00,9.000000,,2013-03-17 15:33:00,
2013-03-17 08:42:00,52.0,52.0,29.95,North,0,5.0,7.0,100,0.00,,,0.00,9.000000,,2013-03-17 15:42:00,
2013-03-17 08:52:00,52.0,52.0,29.95,North,0,5.0,7.0,100,0.00,,,0.00,9.000000,,2013-03-17 15:52:00,
2013-03-17 09:22:00,54.0,54.0,29.97,West,277,2.0,9.0,100,0.00,,,0.00,69.000000,,2013-03-17 16:22:00,
2013-03-17 09:33:00,54.0,54.0,29.97,West,277,2.0,9.0,100,0.00,,,0.00,69.000000,,2013-03-17 16:33:00,
2013-03-17 09:42:00,54.0,54.0,29.97,West,277,2.0,9.0,100,0.00,,,0.00,69.000000,,2013-03-17 16:42:00,
2013-03-17 09:52:00,54.0,54.0,29.97,West,277,2.0,9.0,100,0.00,,,0.00,69.000000,,2013-03-17 16:52:00,
2013-03-17 10:22:00,55.0,54.0,29.99,SW,214,4.0,8.0,98,0.00,,,0.00,138.000000,,2013-03-17 17:22:00,
2013-03-17 10:33:00,55.0,54.0,29.99,SW,214,4.0,8.0,98,0.00,,,0.00,138.000000,,2013-03-17 17:33:00,
2013-03-17 10:42:00,55.0,54.0,29.99,SW,214,4.0,8.0,98,0.00,,,0.00,138.000000,,2013-03-17 17:42:00,
2013-03-17 10:52:00,55.0,54.0,29.99,SW,214,4.0,8.0,98,0.00,,,0.00,138.000000,,2013-03-17 17:52:00,
2013-03-17 11:22:00,56.0,54.0,29.98,WSW,247,8.0,12.0,92,0.00,,,0.00,295.000000,,2013-03-17 18:22:00,
2013-03-17 11:32:00,56.0,54.0,29.98,WSW,247,8.0,12.0,92,0.00,,,0.00,295.000000,,2013-03-17 18:32:00,
2013-03-17 11:42:00,56.0,54.0,29.98,WSW,247,8.0,12.0,92,0.00,,,0.00,295.000000,,2013-03-17 18:42:00,
2013-03-17 11:52:00,56.0,54.0,29.98,WSW,247,8.0,12.0,92,0.00,,,0.00,295.000000,,2013-03-17 18:52:00,
2013-03-17 12:22:00,58.0,53.0,29.99,WSW,243,5.0,13.0,83,0.00,,,0.00,417.000000,,2013-03-17 19:22:00,
2013-03-17 12:32:00,58.0,53.0,29.99,WSW,243,5.0,13.0,83,0.00,,,0.00,417.000000,,2013-03-17 19:32:00,
2013-03-17 12:41:00,58.0,53.0,29.99,WSW,243,5.0,13.0,83,0.00,,,0.00,417.000000,,2013-03-17 19:41:00,
2013-03-17 12:53:00,58.0,53.0,29.99,WSW,243,5.0,13.0,83,0.00,,,0.00,417.000000,,2013-03-17 19:53:00,
2013-03-17 13:22:00,60.0,54.0,29.98,South,189,4.0,10.0,80,0.00,,,0.00,422.000000,,2013-03-17 20:22:00,
2013-03-17 13:32:00,60.0,54.0,29.98,South,189,4.0,10.0,80,0.00,,,0.00,422.000000,,2013-03-17 20:32:00,
2013-03-17 13:42:00,60.0,54.0,29.98,South,189,4.0,10.0,80,0.00,,,0.00,422.000000,,2013-03-17 20:42:00,
2013-03-17 13:52:00,60.0,54.0,29.98,South,189,4.0,10.0,80,0.00,,,0.00,422.000000,,2013-03-17 20:52:00,
2013-03-17 14:22:00,61.0,54.0,29.95,South,180,4.0,9.0,78,0.00,,,0.00,459.000000,,2013-03-17 21:22:00,
2013-03-17 14:33:00,61.0,54.0,29.95,South,180,4.0,9.0,78,0.00,,,0.00,459.000000,,2013-03-17 21:33:00,
2013-03-17 14:42:00,61.0,54.0,29.95,South,180,4.0,9.0,78,0.00,,,0.00,459.000000,,2013-03-17 21:42:00,
2013-03-17 14:52:00,61.0,54.0,29.95,South,180,4.0,9.0,78,0.00,,,0.00,459.000000,,2013-03-17 21:52:00,
2013-03-17 15:23:00,62.0,53.0,29.93,SE,144,5.0,10.0,72,0.00,,,0.00,621.000000,,2013-03-17 22:23:00,
2013-03-17 15:33:00,62.0,53.0,29.93,SE,144,5.0,10.0,72,0.00,,,0.00,621.000000,,2013-03-17 22:33:00,
2013-03-17 15:42:00,62.0,53.0,29.93,SE,144,5.0,10.0,72,0.00,,,0.00,621.000000,,2013-03-17 22:42:00,
2013-03-17 15:52:00,62.0,53.0,29.93,SE,144,5.0,10.0,72,0.00,,,0.00,621.000000,,2013-03-17 22:52:00,
2013-03-17 16:22:00,62.0,52.0,29.93,SSE,148,3.0,8.0,71,0.00,,,0.00,734.000000,,2013-03-17 23:22:00,
2013-03-17 16:32:00,62.0,52.0,29.93,SSE,148,3.0,8.0,71,0.00,,,0.00,734.000000,,2013-03-17 23:32:00,
2013-03-17 16:42:00,62.0,52.0,29.93,SSE,148,3.0,8.0,71,0.00,,,0.00,734.000000,,2013-03-17 23:42:00,
2013-03-17 16:52:00,62.0,52.0,29.93,SSE,148,3.0,8.0,71,0.00,,,0.00,734.000000,,2013-03-17 23:52:00,
2013-03-17 17:22:00,60.0,52.0,29.93,ESE,118,5.0,10.0,75,0.00,,,0.00,523.000000,,2013-03-18 00:22:00,
2013-03-17 17:32:00,60.0,52.0,29.93,ESE,118,5.0,10.0,75,0.00,,,0.00,523.000000,,2013-03-18 00:32:00,
2013-03-17 17:42:00,60.0,52.0,29.93,ESE,118,5.0,10.0,75,0.00,,,0.00,523.000000,,2013-03-18 00:42:00,
2013-03-17 17:52:00,60.0,52.0,29.93,ESE,118,5.0,10.0,75,0.00,,,0.00,523.000000,,2013-03-18 00:52:00,
2013-03-17 18:22:00,56.0,52.0,29.93,ESE,110,4.0,10.0,86,0.00,,,0.00,216.000000,,2013-03-18 01:22:00,
2013-03-17 18:32:00,56.0,52.0,29.93,ESE,110,4.0,10.0,86,0.00,,,0.00,216.000000,,2013-03-18 01:32:00,
2013-03-17 18:42:00,56.0,52.0,29.93,ESE,110,4.0,10.0,86,0.00,,,0.00,216.000000,,2013-03-18 01:42:00,
2013-03-17 18:52:00,56.0,52.0,29.93,ESE,110,4.0,10.0,86,0.00,,,0.00,216.000000,,2013-03-18 01:52:00,
2013-03-17 19:22:00,54.0,52.0,29.93,ESE,116,4.0,9.0,94,0.00,,,0.00,36.000000,,2013-03-18 02:22:00,
2013-03-17 19:32:00,54.0,52.0,29.93,ESE,116,4.0,9.0,94,0.00,,,0.00,36.000000,,2013-03-18 02:32:00,
2013-03-17 19:42:00,54.0,52.0,29.93,ESE,116,4.0,9.0,94,0.00,,,0.00,36.000000,,2013-03-18 02:42:00,
2013-03-17 19:52:00,54.0,52.0,29.93,ESE,116,4.0,9.0,94,0.00,,,0.00,36.000000,,2013-03-18 02:52:00,
2013-03-17 20:22:00,55.0,55.0,29.93,ESE,107,6.0,13.0,99,0.00,,,0.00,0.000000,,2013-03-18 03:22:00,
2013-03-17 20:33:00,55.0,55.0,29.93,ESE,107,6.0,13.0,99,0.00,,,0.00,0.000000,,2013-03-18 03:33:00,
2013-03-17 20:42:00,55.0,55.0,29.93,ESE,107,6.0,13.0,99,0.00,,,0.00,0.000000,,2013-03-18 03:42:00,
2013-03-17 20:52:00,55.0,55.0,29.93,ESE,107,6.0,13.0,99,0.00,,,0.00,0.000000,,2013-03-18 03:52:00,
2013-03-17 21:22:00,55.0,55.0,29.94,East,88,7.0,12.0,99,0.00,,,0.00,0.000000,,2013-03-18 04:22:00,
2013-03-17 21:33:00,55.0,55.0,29.94,East,88,7.0,12.0,99,0.00,,,0.00,0.000000,,2013-03-18 04:33:00,
2013-03-17 21:42:00,55.0,55.0,29.94,East,88,7.0,12.0,99,0.00,,,0.00,0.000000,,2013-03-18 04:42:00,
2013-03-17 21:52:00,55.0,55.0,29.94,East,88,7.0,12.0,99,0.00,,,0.00,0.000000,,2013-03-18 04:52:00,
2013-03-17 22:22:00,53.0,53.0,29.95,East,101,6.0,14.0,100,0.00,,,0.00,0.000000,,2013-03-18 05:22:00,
2013-03-17 22:32:00,53.0,53.0,29.95,East,101,6.0,14.0,100,0.00,,,0.00,0.000000,,2013-03-18 05:32:00,
2013-03-17 22:42:00,53.0,53.0,29.95,East,101,6.0,14.0,100,0.00,,,0.00,0.000000,,2013-03-18 05:42:00,
2013-03-17 22:52:00,53.0,53.0,29.95,East,101,6.0,14.0,100,0.00,,,0.00,0.000000,,2013-03-18 05:52:00,
2013-03-17 23:22:00,50.0,50.0,29.97,NNE,21,6.0,11.0,100,0.00,,,-99.99,0.000000,,2013-03-18 06:22:00,
2013-03-17 23:32:00,50.0,50.0,29.97,NNE,21,6.0,11.0,100,0.00,,,-99.99,0.000000,,2013-03-18 06:32:00,
2013-03-17 23:42:00,50.0,50.0,29.97,NNE,21,6.0,11.0,100,0.00,,,-99.99,0.000000,,2013-03-18 06:42:00,
2013-03-17 23:52:00,50.0,50.0,29.97,NNE,21,6.0,11.0,100,0.00,,,-99.99,0.000000,,2013-03-18 06:52:00,